• In United Kingdom
  • List of Countries
  • For 7 days
  • Water Temperature
  • Satellite Maps
  • Weather Map
  • Weather Widgets
  • user-avatar
    Login

    Hourly Weather Wadzhda

    Today, 25 November, Saturday

    Time Temperature Precipitation Wind Pressure Humidity
    00:00 +15°C° 0 mm 1 mps 716 mmHg 25%
    01:00 +15°C° 0 mm 1 mps 716 mmHg 25%
    02:00 +14°C° 0 mm 1 mps 716 mmHg 24%
    03:00 +14°C° 0 mm 2 mps 715 mmHg 24%
    04:00 +14°C° 0 mm 1 mps 715 mmHg 24%
    05:00 +14°C° 0 mm 1 mps 715 mmHg 25%
    06:00 +13°C° 0 mm 1 mps 715 mmHg 25%
    07:00 +15°C° 0 mm 1 mps 716 mmHg 24%
    08:00 +18°C° 0 mm 1 mps 717 mmHg 22%
    09:00 +19°C° 0 mm 2 mps 717 mmHg 20%
    10:00 +21°C° 0 mm 1 mps 717 mmHg 19%
    11:00 +23°C° 0 mm 1 mps 717 mmHg 18%
    12:00 +24°C° 0 mm 1 mps 717 mmHg 17%
    13:00 +24°C° 0 mm 1 mps 717 mmHg 17%
    14:00 +24°C° 0 mm 1 mps 716 mmHg 17%
    15:00 +24°C° 0 mm 2 mps 716 mmHg 17%
    16:00 +22°C° 0 mm 1 mps 716 mmHg 21%
    17:00 +20°C° 0 mm 1 mps 716 mmHg 25%
    18:00 +18°C° 0 mm 1 mps 716 mmHg 29%
    19:00 +16°C° 0 mm 0 mps 716 mmHg 29%
    20:00 +16°C° 0 mm 0 mps 716 mmHg 30%
    21:00 +15°C° 0 mm 0 mps 717 mmHg 30%
    22:00 +15°C° 0 mm 0 mps 717 mmHg 30%
    23:00 +15°C° 0 mm 0 mps 717 mmHg 30%

    Tomorrow, 26 November, Sunday

    Time Temperature Precipitation Wind Pressure Humidity
    00:00 +15°C° 0 mm 0 mps 717 mmHg 31%
    01:00 +15°C° 0 mm 0 mps 716 mmHg 31%
    02:00 +15°C° 0 mm 0 mps 716 mmHg 31%
    03:00 +14°C° 0 mm 0 mps 716 mmHg 32%
    04:00 +14°C° 0 mm 0 mps 716 mmHg 32%
    05:00 +14°C° 0 mm 0 mps 717 mmHg 33%
    06:00 +13°C° 0 mm 0 mps 717 mmHg 33%
    07:00 +15°C° 0 mm 0 mps 718 mmHg 30%
    08:00 +17°C° 0 mm 0 mps 718 mmHg 27%
    09:00 +20°C° 0 mm 1 mps 719 mmHg 24%
    10:00 +21°C° 0 mm 1 mps 719 mmHg 23%
    11:00 +21°C° 0 mm 2 mps 719 mmHg 23%
    12:00 +23°C° 0 mm 2 mps 720 mmHg 22%
    13:00 +22°C° 0 mm 3 mps 719 mmHg 24%
    14:00 +21°C° 0 mm 3 mps 719 mmHg 26%
    15:00 +21°C° 0 mm 3 mps 719 mmHg 28%
    16:00 +20°C° 0 mm 3 mps 719 mmHg 35%
    17:00 +18°C° 0 mm 2 mps 719 mmHg 41%
    18:00 +17°C° 0 mm 2 mps 719 mmHg 48%
    19:00 +16°C° 0 mm 1 mps 720 mmHg 52%
    20:00 +16°C° 0 mm 1 mps 720 mmHg 56%
    21:00 +15°C° 0 mm 1 mps 720 mmHg 61%
    22:00 +14°C° 0 mm 1 mps 720 mmHg 62%
    23:00 +13°C° 0 mm 0 mps 720 mmHg 64%

    Day after tomorrow, 27 November, Monday

    Time Temperature Precipitation Wind Pressure Humidity
    00:00 +13°C° 0 mm 0 mps 720 mmHg 65%
    01:00 +12°C° 0 mm 0 mps 719 mmHg 64%
    02:00 +12°C° 0 mm 0 mps 719 mmHg 63%
    03:00 +12°C° 0 mm 0 mps 719 mmHg 62%
    04:00 +13°C° 0 mm 1 mps 719 mmHg 62%
    05:00 +13°C° 0 mm 1 mps 719 mmHg 63%
    06:00 +13°C° 0 mm 1 mps 719 mmHg 63%
    07:00 +14°C° 0 mm 1 mps 719 mmHg 58%
    08:00 +15°C° 0 mm 1 mps 719 mmHg 52%
    09:00 +18°C° 0 mm 1 mps 720 mmHg 46%
    10:00 +19°C° 0 mm 1 mps 720 mmHg 43%
    11:00 +20°C° 0 mm 1 mps 719 mmHg 40%
    12:00 +21°C° 0 mm 1 mps 719 mmHg 37%
    13:00 +21°C° 0 mm 1 mps 719 mmHg 38%
    14:00 +20°C° 0 mm 2 mps 718 mmHg 39%
    15:00 +20°C° 0 mm 2 mps 718 mmHg 39%
    16:00 +19°C° 0 mm 2 mps 718 mmHg 46%
    17:00 +18°C° 0 mm 2 mps 718 mmHg 53%
    18:00 +18°C° 0 mm 1 mps 718 mmHg 60%
    19:00 +16°C° 0 mm 1 mps 718 mmHg 64%
    20:00 +16°C° 0 mm 1 mps 718 mmHg 67%
    21:00 +16°C° 0 mm 1 mps 718 mmHg 71%
    22:00 +16°C° 0 mm 1 mps 718 mmHg 71%
    23:00 +15°C° 0 mm 1 mps 718 mmHg 72%

    28 November, Tuesday

    Time Temperature Precipitation Wind Pressure Humidity
    00:00 +14°C° 0 mm 0 mps 718 mmHg 72%
    01:00 +14°C° 0 mm 0 mps 717 mmHg 72%
    02:00 +14°C° 0 mm 0 mps 717 mmHg 72%
    03:00 +13°C° 0 mm 0 mps 716 mmHg 72%
    04:00 +13°C° 0 mm 0 mps 716 mmHg 72%
    05:00 +14°C° 0 mm 1 mps 716 mmHg 71%
    06:00 +13°C° 0 mm 1 mps 716 mmHg 71%
    07:00 +15°C° 0 mm 1 mps 716 mmHg 64%
    08:00 +16°C° 0 mm 1 mps 716 mmHg 56%
    09:00 +19°C° 0 mm 1 mps 717 mmHg 49%
    10:00 +19°C° 0 mm 2 mps 716 mmHg 44%
    11:00 +20°C° 0 mm 2 mps 716 mmHg 40%
    12:00 +22°C° 0 mm 3 mps 716 mmHg 36%
    13:00 +22°C° 0 mm 3 mps 715 mmHg 36%
    14:00 +22°C° 0 mm 3 mps 714 mmHg 36%
    15:00 +22°C° 0 mm 4 mps 714 mmHg 37%
    16:00 +21°C° 0 mm 3 mps 713 mmHg 41%
    17:00 +20°C° 0 mm 2 mps 713 mmHg 45%
    18:00 +19°C° 0 mm 1 mps 713 mmHg 49%
    19:00 +18°C° 0 mm 2 mps 713 mmHg 48%
    20:00 +18°C° 0 mm 2 mps 713 mmHg 47%
    21:00 +18°C° 0 mm 2 mps 713 mmHg 47%
    22:00 +18°C° 0 mm 2 mps 712 mmHg 47%
    23:00 +18°C° 0 mm 2 mps 712 mmHg 47%

    29 November, Wednesday

    Time Temperature Precipitation Wind Pressure Humidity
    00:00 +18°C° 0 mm 3 mps 712 mmHg 47%
    01:00 +17°C° 0 mm 3 mps 711 mmHg 46%
    02:00 +17°C° 0 mm 3 mps 711 mmHg 45%
    03:00 +17°C° 0 mm 3 mps 710 mmHg 44%
    04:00 +17°C° 0 mm 3 mps 710 mmHg 43%
    05:00 +17°C° 0 mm 3 mps 710 mmHg 43%
    06:00 +17°C° 0 mm 3 mps 709 mmHg 43%
    07:00 +18°C° 0 mm 4 mps 710 mmHg 41%
    08:00 +19°C° 0 mm 4 mps 710 mmHg 39%
    09:00 +20°C° 0 mm 4 mps 710 mmHg 37%
    10:00 +20°C° 0 mm 6 mps 710 mmHg 35%
    11:00 +21°C° 0 mm 8 mps 709 mmHg 33%
    12:00 +21°C° 0 mm 10 mps 709 mmHg 30%
    13:00 +21°C° 0 mm 10 mps 709 mmHg 33%
    14:00 +22°C° 0 mm 11 mps 708 mmHg 35%
    15:00 +22°C° 0 mm 11 mps 708 mmHg 37%
    16:00 +21°C° 0 mm 9 mps 708 mmHg 46%
    17:00 +18°C° 0 mm 7 mps 708 mmHg 54%
    18:00 +17°C° 0 mm 6 mps 708 mmHg 62%
    19:00 +17°C° 0.1 mm 5 mps 709 mmHg 65%
    20:00 +16°C° 0.1 mm 5 mps 709 mmHg 69%
    21:00 +16°C° 0.1 mm 5 mps 709 mmHg 72%
    22:00 +16°C° 0.2 mm 5 mps 709 mmHg 73%
    23:00 +16°C° 0.2 mm 5 mps 709 mmHg 74%

    30 November, Thursday

    Time Temperature Precipitation Wind Pressure Humidity
    00:00 +15°C° 0.2 mm 5 mps 709 mmHg 74%
    01:00 +15°C° 0.5 mm 5 mps 709 mmHg 76%
    02:00 +15°C° 0.5 mm 5 mps 709 mmHg 77%
    03:00 +15°C° 0.5 mm 5 mps 709 mmHg 78%
    04:00 +15°C° 0.4 mm 4 mps 709 mmHg 79%
    05:00 +14°C° 0.4 mm 4 mps 709 mmHg 80%
    06:00 +14°C° 0.4 mm 3 mps 709 mmHg 81%
    07:00 +15°C° 0.4 mm 4 mps 709 mmHg 80%
    08:00 +15°C° 0.4 mm 4 mps 710 mmHg 78%
    09:00 +15°C° 0.4 mm 5 mps 710 mmHg 76%
    10:00 +15°C° 0.5 mm 5 mps 710 mmHg 77%
    11:00 +15°C° 0.5 mm 6 mps 710 mmHg 78%
    12:00 +15°C° 0.5 mm 6 mps 710 mmHg 78%
    13:00 +14°C° 0.6 mm 6 mps 710 mmHg 80%
    14:00 +14°C° 0.6 mm 5 mps 710 mmHg 82%
    15:00 +14°C° 0.6 mm 5 mps 710 mmHg 84%
    16:00 +13°C° 1 mm 4 mps 710 mmHg 86%
    17:00 +13°C° 1 mm 4 mps 711 mmHg 88%
    18:00 +12°C° 1 mm 3 mps 711 mmHg 90%
    19:00 +12°C° 0.7 mm 3 mps 712 mmHg 89%
    20:00 +12°C° 0.7 mm 3 mps 712 mmHg 89%
    21:00 +12°C° 0.7 mm 3 mps 713 mmHg 88%
    22:00 +11°C° 0.3 mm 3 mps 713 mmHg 87%
    23:00 +11°C° 0.3 mm 3 mps 713 mmHg 86%
    Show more